FENGYUN 1C DEB

Satellite information

Favourite Embed

Satellite Type and Status

DEBRISIN ORBIT

Key statistics

Satellite FENGYUN 1C DEB at a glance.

Uptime

9553

Days in orbit

Revolutions

≈ 14.8

Per day

Orbit

SSO

Sun Synchronous Orbit

Inclination

98.0

Latest

Satellite identification and parameters

Extended collection of information and parameters for FENGYUN 1C DEB.

Object identification

Identified? True

Debris? True

Object name: FENGYUN 1C DEB

International designator: 1999-025AXU

Object number (NORAD): 30882

Object ID (CCSDS): 30882

Country: PEOPLES REPUBLIC OF CHINA (PRC)

Current information (Y/N): Y

RCS size: SMALL

Orbital parameters

Period: 97.136 minutes

Inclination: 97.9638 deg

SMA: 6999.724 km

Apoapsis: 736.032 km

Periapsis: 507.145 km

RAAN: 241.1093 deg

Eccentricy: 0.0163497

Argument of periapsis: 206.5585 deg

Mean anomaly: 152.7185 deg

Mean motion: 14.82454695 rev/day

Mean motion (dot): 0.00006451 rev/day2

B* drag term: 0.00064238 1/REarth

Two-line elements (TLE)

Creation date: July 4, 2025, 6:39 p.m.

Reference frame: TEME

Reference center: EARTH

Epoch: July 4, 2025, 9:39 a.m. UTC

TLE line 0: 0 FENGYUN 1C DEB

TLE line 1: 1 30882U 99025AXU 25185.40219408 .00006451 00000-0 64238-3 0 9997

TLE line 2: 2 30882 97.9638 241.1093 0163497 206.5585 152.7185 14.82454695972618

Live tracking on map

Real-time ground track for satellite FENGYUN 1C DEB.

In-orbit conjunctions

A list of the most updated potential collisions computed for object FENGYUN 1C DEB.

Target Orbit TCA Probability of collision Miss distance Type
CZ-6A R/B LEO 2024-09-23 12:12:36 0.0001316584 642.0 (m) ROCKET BODY
IRIDIUM 73 LEO 2024-08-21 12:52:48 0.0002369129 525.0 (m) PAYLOAD

Associated space launch

Chinese polar orbiting meteorological satellite

FENGYUN 1C DEB was lifted into orbit during the mission ‘Long March 4B | Feng Yun 1C’, on board a Long March 4B space rocket.

The launch took place on May 10, 1999, 1:33 a.m. from Launch Complex 7.

For more information about the launch, click the button.

Launch to space Long March 4B | Feng Yun 1C
Long March 4B | Feng Yun 1C

Agency: N/A

Status: Launch Successful

Launch date: May 10, 1999, 1:33 a.m. UTC

Rocket: Long March 4B

Launch pad: Launch Complex 7

Location: Taiyuan Satellite Launch Center, People's Republic of China

...

Latest news about this satellite

There are no fresh news available about this satellite. Check back as we update our databases every day.


Newsletter sign-up

Weekly statistics, charts and insights to help you stay on top of the space industry.